Time,TemperatureF,DewpointF,PressureIn,WindDirection,WindDirectionDegrees,WindSpeedMPH,WindSpeedGustMPH,Humidity,HourlyPrecipIn,Conditions,Clouds,dailyrainin,SoftwareType,DateUTC
2013-05-10 00:03:00,47.5,47.2,29.88,NNE,13,13.0,18.0,99,0.01,RA,RA,0.00,WeatherDisplay:10.37,2013-05-10 05:03:00,
2013-05-10 00:13:00,46.9,46.7,29.88,NNE,27,6.0,21.0,99,0.02,RA,RA,0.05,WeatherDisplay:10.37,2013-05-10 05:13:00,
2013-05-10 00:23:00,46.7,46.5,29.89,NE,35,12.0,18.0,99,0.02,RA,RA,0.09,WeatherDisplay:10.37,2013-05-10 05:23:00,
2013-05-10 00:33:00,46.4,46.1,29.89,NNE,21,7.0,14.0,99,0.01,RA,RA,0.12,WeatherDisplay:10.37,2013-05-10 05:33:00,
2013-05-10 00:43:00,46.3,46.0,29.89,NNE,18,10.0,21.0,99,0.00,RA,RA,0.13,WeatherDisplay:10.37,2013-05-10 05:43:00,
2013-05-10 00:53:00,45.9,45.7,29.88,NNE,31,9.0,21.0,99,0.01,RA,RA,0.17,WeatherDisplay:10.37,2013-05-10 05:53:00,
2013-05-10 01:03:00,45.9,45.6,29.88,NE,39,12.0,20.0,99,0.00,RA,RA,0.18,WeatherDisplay:10.37,2013-05-10 06:03:00,
2013-05-10 01:13:00,45.7,45.4,29.88,NE,35,5.0,13.0,99,0.01,RA,RA,0.21,WeatherDisplay:10.37,2013-05-10 06:13:00,
2013-05-10 01:23:00,45.5,45.2,29.88,NNE,27,5.0,17.0,99,0.01,RA,RA,0.24,WeatherDisplay:10.37,2013-05-10 06:23:00,
2013-05-10 01:33:00,45.0,44.7,29.88,NNE,20,13.0,20.0,99,0.01,RA,RA,0.26,WeatherDisplay:10.37,2013-05-10 06:33:00,
2013-05-10 01:44:00,44.6,44.3,29.88,NNE,33,12.0,26.0,99,0.00,RA,RA,0.27,WeatherDisplay:10.37,2013-05-10 06:44:00,
2013-05-10 01:54:00,44.4,44.2,29.87,NNE,32,5.0,15.0,99,0.01,RA,RA,0.28,WeatherDisplay:10.37,2013-05-10 06:54:00,
2013-05-10 02:04:00,44.4,44.2,29.87,NW,325,8.0,21.0,99,0.00,RA,RA,0.29,WeatherDisplay:10.37,2013-05-10 07:04:00,
2013-05-10 02:14:00,43.7,43.4,29.87,NNE,12,9.0,22.0,99,0.00,RA,RA,0.32,WeatherDisplay:10.37,2013-05-10 07:14:00,
2013-05-10 02:24:00,43.5,43.3,29.87,NNE,28,6.0,18.0,99,0.01,RA,RA,0.34,WeatherDisplay:10.37,2013-05-10 07:24:00,
2013-05-10 02:34:00,43.2,42.9,29.87,North,10,8.0,23.0,99,0.01,RA,RA,0.35,WeatherDisplay:10.37,2013-05-10 07:34:00,
2013-05-10 02:44:00,43.0,42.7,29.87,NNE,32,12.0,24.0,99,0.00,RA,RA,0.37,WeatherDisplay:10.37,2013-05-10 07:44:00,
2013-05-10 02:54:00,42.8,42.5,29.87,North,6,12.0,30.0,99,0.01,RA,RA,0.38,WeatherDisplay:10.37,2013-05-10 07:54:00,
2013-05-10 03:04:00,42.6,42.4,29.87,NNE,27,12.0,22.0,99,0.00,-RA,-RA,0.38,WeatherDisplay:10.37,2013-05-10 08:04:00,
2013-05-10 03:14:00,42.4,42.2,29.86,NE,39,7.0,30.0,99,0.00,-RA,-RA,0.39,WeatherDisplay:10.37,2013-05-10 08:14:00,
2013-05-10 03:24:00,42.0,41.8,29.86,North,1,8.0,25.0,99,0.00,-RA,-RA,0.41,WeatherDisplay:10.37,2013-05-10 08:24:00,
2013-05-10 03:34:00,42.3,42.0,29.86,NNE,24,10.0,33.0,99,0.00,-RA,-RA,0.44,WeatherDisplay:10.37,2013-05-10 08:34:00,
2013-05-10 03:44:00,42.4,42.1,29.87,North,7,7.0,21.0,99,0.00,-RA,-RA,0.45,WeatherDisplay:10.37,2013-05-10 08:44:00,
2013-05-10 03:54:00,42.4,42.2,29.86,North,7,12.0,31.0,99,0.01,-RA,-RA,0.47,WeatherDisplay:10.37,2013-05-10 08:54:00,
2013-05-10 04:04:00,42.6,42.4,29.86,NNE,21,10.0,17.0,99,0.00,OVC,OVC,0.47,WeatherDisplay:10.37,2013-05-10 09:04:00,
2013-05-10 04:14:00,42.6,42.4,29.87,NNE,21,3.0,20.0,99,0.01,RA,RA,0.50,WeatherDisplay:10.37,2013-05-10 09:14:00,
2013-05-10 04:24:00,42.6,42.4,29.86,NE,34,10.0,23.0,99,0.01,RA,RA,0.52,WeatherDisplay:10.37,2013-05-10 09:24:00,
2013-05-10 04:34:00,42.4,42.2,29.87,NE,36,6.0,16.0,99,0.00,OVC,OVC,0.52,WeatherDisplay:10.37,2013-05-10 09:34:00,
2013-05-10 04:44:00,42.4,42.2,29.87,North,4,12.0,25.0,99,0.00,RA,RA,0.53,WeatherDisplay:10.37,2013-05-10 09:44:00,
2013-05-10 04:54:00,42.4,42.2,29.88,North,8,10.0,21.0,99,0.00,OVC,OVC,0.53,WeatherDisplay:10.37,2013-05-10 09:54:00,
2013-05-10 05:03:00,42.4,42.2,29.88,North,357,5.0,20.0,99,0.00,-RA,-RA,0.53,WeatherDisplay:10.37,2013-05-10 10:03:00,
2013-05-10 05:13:00,42.3,42.0,29.89,North,1,6.0,17.0,99,0.00,-RA,-RA,0.53,WeatherDisplay:10.37,2013-05-10 10:13:00,
2013-05-10 05:23:00,42.1,41.8,29.89,NNW,348,9.0,24.0,99,0.00,-RA,-RA,0.53,WeatherDisplay:10.37,2013-05-10 10:23:00,
2013-05-10 05:33:00,42.3,42.0,29.90,North,4,9.0,23.0,99,0.00,-RA,-RA,0.54,WeatherDisplay:10.37,2013-05-10 10:33:00,
2013-05-10 05:43:00,42.1,41.8,29.90,North,360,7.0,17.0,99,0.00,-RA,-RA,0.54,WeatherDisplay:10.37,2013-05-10 10:43:00,
2013-05-10 05:53:00,41.9,41.6,29.91,NNW,344,6.0,16.0,99,0.00,-RA,-RA,0.56,WeatherDisplay:10.37,2013-05-10 10:53:00,
2013-05-10 06:04:00,41.7,41.5,29.90,NNW,332,9.0,18.0,99,0.00,-RA,-RA,0.56,WeatherDisplay:10.37,2013-05-10 11:04:00,
2013-05-10 06:14:00,41.5,41.3,29.90,NNW,341,9.0,21.0,99,0.00,-RA,-RA,0.57,WeatherDisplay:10.37,2013-05-10 11:14:00,
2013-05-10 06:24:00,41.5,41.3,29.90,North,351,12.0,29.0,99,0.00,-RA,-RA,0.58,WeatherDisplay:10.37,2013-05-10 11:24:00,
2013-05-10 06:33:00,41.2,40.9,29.91,NNW,345,13.0,33.0,99,0.01,-RA,-RA,0.59,WeatherDisplay:10.37,2013-05-10 11:33:00,
2013-05-10 06:43:00,41.2,40.9,29.91,North,352,8.0,20.0,99,0.00,-RA,-RA,0.59,WeatherDisplay:10.37,2013-05-10 11:43:00,
2013-05-10 06:53:00,41.2,40.9,29.92,North,8,10.0,24.0,99,0.01,-RA,-RA,0.60,WeatherDisplay:10.37,2013-05-10 11:53:00,
2013-05-10 07:03:00,41.2,40.9,29.92,NNE,21,6.0,24.0,99,0.00,-RA,-RA,0.60,WeatherDisplay:10.37,2013-05-10 12:03:00,
2013-05-10 07:13:00,41.4,41.1,29.92,North,4,13.0,24.0,99,0.00,-RA,-RA,0.60,WeatherDisplay:10.37,2013-05-10 12:13:00,
2013-05-10 07:23:00,41.2,40.9,29.93,North,354,8.0,18.0,99,0.00,-RA,-RA,0.60,WeatherDisplay:10.37,2013-05-10 12:23:00,
2013-05-10 07:33:00,41.0,40.7,29.92,North,2,15.0,36.0,99,0.00,-RA,-RA,0.61,WeatherDisplay:10.37,2013-05-10 12:33:00,
2013-05-10 07:43:00,41.2,41.0,29.93,North,6,10.0,22.0,99,0.00,-RA,-RA,0.61,WeatherDisplay:10.37,2013-05-10 12:43:00,
2013-05-10 07:53:00,41.4,41.1,29.93,North,3,8.0,25.0,99,0.00,-RA,-RA,0.61,WeatherDisplay:10.37,2013-05-10 12:53:00,
2013-05-10 08:03:00,41.4,41.1,29.93,North,5,16.0,25.0,99,0.00,OVC,OVC,0.61,WeatherDisplay:10.37,2013-05-10 13:03:00,
2013-05-10 08:13:00,41.5,41.3,29.93,North,4,6.0,29.0,99,0.00,OVC,OVC,0.61,WeatherDisplay:10.37,2013-05-10 13:13:00,
2013-05-10 08:23:00,41.4,41.1,29.93,NNE,15,7.0,18.0,99,0.00,OVC,OVC,0.61,WeatherDisplay:10.37,2013-05-10 13:23:00,
2013-05-10 08:33:00,41.4,41.1,29.94,North,6,10.0,32.0,99,0.00,OVC,OVC,0.61,WeatherDisplay:10.37,2013-05-10 13:33:00,
2013-05-10 08:43:00,41.4,41.2,29.94,NE,34,9.0,25.0,99,0.00,OVC,OVC,0.61,WeatherDisplay:10.37,2013-05-10 13:43:00,
2013-05-10 08:53:00,41.4,41.2,29.94,North,10,7.0,33.0,99,0.00,OVC,OVC,0.61,WeatherDisplay:10.37,2013-05-10 13:53:00,
2013-05-10 09:03:00,41.4,41.1,29.94,NNE,26,12.0,24.0,99,0.00,OVC,OVC,0.61,WeatherDisplay:10.37,2013-05-10 14:03:00,
2013-05-10 09:13:00,41.4,41.1,29.94,NNW,344,9.0,22.0,99,0.00,OVC,OVC,0.61,WeatherDisplay:10.37,2013-05-10 14:13:00,
2013-05-10 09:23:00,41.5,41.3,29.94,North,354,7.0,24.0,99,0.00,OVC,OVC,0.61,WeatherDisplay:10.37,2013-05-10 14:23:00,
2013-05-10 09:33:00,41.7,41.5,29.95,NNE,30,8.0,21.0,99,0.00,OVC,OVC,0.61,WeatherDisplay:10.37,2013-05-10 14:33:00,
2013-05-10 09:43:00,42.0,41.7,29.95,North,7,9.0,20.0,99,0.00,OVC,OVC,0.61,WeatherDisplay:10.37,2013-05-10 14:43:00,
2013-05-10 09:53:00,41.4,41.2,29.95,North,355,10.0,23.0,99,0.00,OVC,OVC,0.61,WeatherDisplay:10.37,2013-05-10 14:53:00,
2013-05-10 10:03:00,41.5,41.3,29.96,North,349,14.0,35.0,99,0.00,OVC,OVC,0.61,WeatherDisplay:10.37,2013-05-10 15:03:00,
2013-05-10 10:14:00,41.5,41.3,29.96,NNE,19,9.0,18.0,99,0.00,OVC,OVC,0.61,WeatherDisplay:10.37,2013-05-10 15:14:00,
2013-05-10 10:24:00,42.1,41.8,29.96,North,352,10.0,26.0,99,0.00,OVC,OVC,0.61,WeatherDisplay:10.37,2013-05-10 15:24:00,
2013-05-10 10:34:00,42.4,42.2,29.96,North,359,8.0,23.0,99,0.00,OVC,OVC,0.61,WeatherDisplay:10.37,2013-05-10 15:34:00,
2013-05-10 10:44:00,42.3,42.0,29.97,North,5,7.0,24.0,99,0.00,OVC,OVC,0.61,WeatherDisplay:10.37,2013-05-10 15:44:00,
2013-05-10 10:54:00,42.3,42.0,29.97,NNW,337,12.0,22.0,99,0.00,OVC,OVC,0.61,WeatherDisplay:10.37,2013-05-10 15:54:00,
2013-05-10 11:03:00,42.6,42.1,29.98,North,355,9.0,20.0,98,0.00,OVC,OVC,0.61,WeatherDisplay:10.37,2013-05-10 16:03:00,
2013-05-10 11:13:00,42.5,41.7,29.98,North,9,15.0,24.0,97,0.00,OVC,OVC,0.61,WeatherDisplay:10.37,2013-05-10 16:13:00,
2013-05-10 11:23:00,43.3,42.2,29.98,NNE,30,7.0,17.0,96,0.00,OVC,OVC,0.61,WeatherDisplay:10.37,2013-05-10 16:23:00,
2013-05-10 11:33:00,43.3,42.0,29.98,North,356,9.0,21.0,95,0.00,OVC,OVC,0.61,WeatherDisplay:10.37,2013-05-10 16:33:00,
2013-05-10 11:43:00,43.5,41.9,29.98,NNE,20,9.0,24.0,94,0.00,OVC,OVC,0.61,WeatherDisplay:10.37,2013-05-10 16:43:00,
2013-05-10 11:53:00,43.5,41.9,29.98,NNE,17,9.0,17.0,94,0.00,OVC,OVC,0.61,WeatherDisplay:10.37,2013-05-10 16:53:00,
2013-05-10 12:03:00,43.3,42.0,29.99,North,354,13.0,21.0,95,0.00,OVC,OVC,0.61,WeatherDisplay:10.37,2013-05-10 17:03:00,
2013-05-10 12:13:00,43.7,41.8,29.98,NNW,340,10.0,20.0,93,0.00,OVC,OVC,0.61,WeatherDisplay:10.37,2013-05-10 17:13:00,
2013-05-10 12:23:00,43.9,42.3,29.98,NNW,348,8.0,21.0,94,0.00,OVC,OVC,0.61,WeatherDisplay:10.37,2013-05-10 17:23:00,
2013-05-10 12:33:00,43.3,42.2,29.98,NNW,332,10.0,23.0,96,0.00,OVC,OVC,0.61,WeatherDisplay:10.37,2013-05-10 17:33:00,
2013-05-10 12:43:00,44.1,43.0,29.98,North,350,5.0,24.0,96,0.00,OVC,OVC,0.61,WeatherDisplay:10.37,2013-05-10 17:43:00,
2013-05-10 12:53:00,44.4,42.5,29.98,North,358,8.0,20.0,93,0.00,OVC,OVC,0.61,WeatherDisplay:10.37,2013-05-10 17:53:00,
2013-05-10 13:03:00,45.1,42.7,29.97,NW,320,9.0,17.0,91,0.00,OVC,OVC,0.61,WeatherDisplay:10.37,2013-05-10 18:03:00,
2013-05-10 13:13:00,45.7,42.9,29.97,NNE,17,7.0,25.0,90,0.00,OVC,OVC,0.61,WeatherDisplay:10.37,2013-05-10 18:13:00,
2013-05-10 13:23:00,45.7,43.5,29.97,North,7,7.0,20.0,92,0.00,OVC,OVC,0.61,WeatherDisplay:10.37,2013-05-10 18:23:00,
2013-05-10 13:33:00,45.0,43.1,29.97,NNW,344,9.0,22.0,93,0.00,OVC,OVC,0.61,WeatherDisplay:10.37,2013-05-10 18:33:00,
2013-05-10 13:43:00,45.1,43.5,29.97,NNW,341,8.0,16.0,94,0.00,OVC,OVC,0.61,WeatherDisplay:10.37,2013-05-10 18:43:00,
2013-05-10 13:53:00,46.0,43.8,29.98,North,354,3.0,22.0,92,0.00,OVC,OVC,0.61,WeatherDisplay:10.37,2013-05-10 18:53:00,
2013-05-10 14:03:00,46.2,43.7,29.97,North,359,8.0,21.0,91,0.00,OVC,OVC,0.61,WeatherDisplay:10.37,2013-05-10 19:03:00,
2013-05-10 14:13:00,46.3,44.1,29.98,North,355,8.0,15.0,92,0.00,OVC,OVC,0.61,WeatherDisplay:10.37,2013-05-10 19:13:00,
2013-05-10 14:24:00,46.8,44.3,29.97,North,351,7.0,13.0,91,0.00,OVC,OVC,0.61,WeatherDisplay:10.37,2013-05-10 19:24:00,
2013-05-10 14:34:00,47.1,44.6,29.97,NNW,347,3.0,18.0,91,0.00,OVC,OVC,0.61,WeatherDisplay:10.37,2013-05-10 19:34:00,
2013-05-10 14:44:00,47.5,44.7,29.98,NNW,333,6.0,14.0,90,0.00,OVC,OVC,0.61,WeatherDisplay:10.37,2013-05-10 19:44:00,
2013-05-10 14:54:00,48.4,45.3,29.98,NNW,345,7.0,16.0,89,0.00,OVC,OVC,0.61,WeatherDisplay:10.37,2013-05-10 19:54:00,
2013-05-10 15:04:00,48.6,45.2,29.98,North,357,7.0,20.0,88,0.00,OVC,OVC,0.61,WeatherDisplay:10.37,2013-05-10 20:04:00,
2013-05-10 15:14:00,49.1,45.7,29.97,NNW,341,7.0,12.0,88,0.00,OVC,OVC,0.61,WeatherDisplay:10.37,2013-05-10 20:14:00,
2013-05-10 15:24:00,49.3,45.9,29.97,NNW,333,3.0,14.0,88,0.00,OVC,OVC,0.61,WeatherDisplay:10.37,2013-05-10 20:24:00,
2013-05-10 15:34:00,49.7,45.7,29.97,NNE,29,1.0,12.0,86,0.00,OVC,OVC,0.61,WeatherDisplay:10.37,2013-05-10 20:34:00,
2013-05-10 15:44:00,49.8,45.8,29.97,North,5,7.0,14.0,86,0.00,OVC,OVC,0.61,WeatherDisplay:10.37,2013-05-10 20:44:00,
2013-05-10 15:54:00,49.8,45.8,29.97,NNE,17,6.0,14.0,86,0.00,OVC,OVC,0.61,WeatherDisplay:10.37,2013-05-10 20:54:00,
2013-05-10 16:04:00,49.8,46.1,29.96,North,349,7.0,12.0,87,0.00,OVC,OVC,0.61,WeatherDisplay:10.37,2013-05-10 21:04:00,
2013-05-10 16:14:00,49.8,45.8,29.96,North,6,10.0,18.0,86,0.00,OVC,OVC,0.61,WeatherDisplay:10.37,2013-05-10 21:14:00,
2013-05-10 16:24:00,50.6,46.2,29.95,North,2,6.0,18.0,85,0.00,OVC,OVC,0.61,WeatherDisplay:10.37,2013-05-10 21:24:00,
2013-05-10 16:34:00,51.4,47.0,29.96,NNW,346,2.0,14.0,85,0.00,OVC,OVC,0.61,WeatherDisplay:10.37,2013-05-10 21:34:00,
2013-05-10 16:44:00,51.1,46.2,29.95,North,356,7.0,17.0,83,0.00,OVC,OVC,0.61,WeatherDisplay:10.37,2013-05-10 21:44:00,
2013-05-10 16:54:00,51.7,46.7,29.96,NNW,334,5.0,12.0,83,0.00,OVC,OVC,0.61,WeatherDisplay:10.37,2013-05-10 21:54:00,
2013-05-10 17:03:00,51.4,46.4,29.95,North,351,5.0,12.0,83,0.00,OVC,OVC,0.61,WeatherDisplay:10.37,2013-05-10 22:03:00,
2013-05-10 17:13:00,51.8,47.1,29.95,NNE,13,2.0,14.0,84,0.00,OVC,OVC,0.61,WeatherDisplay:10.37,2013-05-10 22:13:00,
2013-05-10 17:23:00,51.6,46.6,29.95,North,6,5.0,12.0,83,0.00,OVC,OVC,0.61,WeatherDisplay:10.37,2013-05-10 22:23:00,
2013-05-10 17:33:00,51.8,46.8,29.95,NNW,343,8.0,14.0,83,0.00,OVC,OVC,0.61,WeatherDisplay:10.37,2013-05-10 22:33:00,
2013-05-10 17:43:00,51.8,47.1,29.95,NNW,340,2.0,15.0,84,0.00,OVC,OVC,0.61,WeatherDisplay:10.37,2013-05-10 22:43:00,
2013-05-10 17:53:00,52.3,47.6,29.95,NNW,346,2.0,9.0,84,0.00,OVC,OVC,0.61,WeatherDisplay:10.37,2013-05-10 22:53:00,
2013-05-10 18:03:00,52.3,47.3,29.95,NNW,347,6.0,13.0,83,0.00,OVC,OVC,0.61,WeatherDisplay:10.37,2013-05-10 23:03:00,
2013-05-10 18:13:00,52.2,47.2,29.95,North,8,5.0,12.0,83,0.00,OVC,OVC,0.61,WeatherDisplay:10.37,2013-05-10 23:13:00,
2013-05-10 18:23:00,52.5,47.5,29.95,NNW,333,3.0,10.0,83,0.00,OVC,OVC,0.61,WeatherDisplay:10.37,2013-05-10 23:23:00,
2013-05-10 18:33:00,52.3,47.6,29.95,North,353,1.0,7.0,84,0.00,OVC,OVC,0.61,WeatherDisplay:10.37,2013-05-10 23:33:00,
2013-05-10 18:43:00,52.2,47.5,29.95,North,4,1.0,12.0,84,0.00,OVC,OVC,0.61,WeatherDisplay:10.37,2013-05-10 23:43:00,
2013-05-10 18:53:00,52.3,47.2,29.95,NNW,341,5.0,8.0,83,0.00,OVC,OVC,0.61,WeatherDisplay:10.37,2013-05-10 23:53:00,
2013-05-10 19:03:00,52.5,47.5,29.94,North,358,1.0,8.0,83,0.00,BKN,BKN,0.61,WeatherDisplay:10.37,2013-05-11 00:03:00,
2013-05-10 19:14:00,52.5,47.5,29.94,North,357,5.0,9.0,83,0.00,BKN,BKN,0.61,WeatherDisplay:10.37,2013-05-11 00:14:00,
2013-05-10 19:24:00,52.5,47.5,29.94,North,357,3.0,9.0,83,0.00,BKN,BKN,0.61,WeatherDisplay:10.37,2013-05-11 00:24:00,
2013-05-10 19:34:00,52.2,47.5,29.94,NNE,31,1.0,5.0,84,0.00,BKN,BKN,0.61,WeatherDisplay:10.37,2013-05-11 00:34:00,
2013-05-10 19:44:00,52.0,47.6,29.94,North,358,1.0,5.0,85,0.00,BKN,BKN,0.61,WeatherDisplay:10.37,2013-05-11 00:44:00,
2013-05-10 19:54:00,51.6,47.6,29.94,NE,42,0.0,3.0,86,0.00,BKN,BKN,0.61,WeatherDisplay:10.37,2013-05-11 00:54:00,
2013-05-10 20:04:00,51.3,47.2,29.93,East,94,0.0,2.0,86,0.00,BKN,BKN,0.61,WeatherDisplay:10.37,2013-05-11 01:04:00,
2013-05-10 20:14:00,51.1,47.3,29.94,East,90,0.0,2.0,87,0.00,BKN,BKN,0.61,WeatherDisplay:10.37,2013-05-11 01:14:00,
2013-05-10 20:24:00,50.7,47.6,29.94,ESE,105,0.0,3.0,89,0.00,BKN,BKN,0.61,WeatherDisplay:10.37,2013-05-11 01:24:00,
2013-05-10 20:34:00,50.5,47.7,29.94,SE,133,2.0,6.0,90,0.00,SCT,SCT,0.61,WeatherDisplay:10.37,2013-05-11 01:34:00,
2013-05-10 20:44:00,49.8,47.6,29.94,SE,135,3.0,7.0,92,0.00,SCT,SCT,0.61,WeatherDisplay:10.37,2013-05-11 01:44:00,
2013-05-10 20:54:00,49.3,47.6,29.94,SE,139,3.0,7.0,94,0.00,SCT,SCT,0.61,WeatherDisplay:10.37,2013-05-11 01:54:00,
2013-05-10 21:04:00,48.9,47.6,29.95,SE,135,3.0,7.0,95,0.00,FEW,FEW,0.61,WeatherDisplay:10.37,2013-05-11 02:04:00,
2013-05-10 21:14:00,48.2,47.1,29.95,SE,135,1.0,5.0,96,0.00,FEW,FEW,0.61,WeatherDisplay:10.37,2013-05-11 02:14:00,
2013-05-10 21:24:00,47.5,46.7,29.95,ESE,109,0.0,5.0,97,0.00,FEW,FEW,0.61,WeatherDisplay:10.37,2013-05-11 02:24:00,
2013-05-10 21:34:00,46.4,45.6,29.95,East,90,0.0,0.0,97,0.00,FEW,FEW,0.61,WeatherDisplay:10.37,2013-05-11 02:34:00,
2013-05-10 21:44:00,46.0,45.5,29.95,South,176,0.0,2.0,98,0.00,FEW,FEW,0.61,WeatherDisplay:10.37,2013-05-11 02:44:00,
2013-05-10 21:54:00,46.0,45.8,29.95,SSE,155,1.0,8.0,99,0.00,FEW,FEW,0.61,WeatherDisplay:10.37,2013-05-11 02:54:00,
2013-05-10 22:04:00,46.2,46.0,29.95,SE,136,2.0,3.0,99,0.00,CLR,CLR,0.61,WeatherDisplay:10.37,2013-05-11 03:04:00,
2013-05-10 22:14:00,46.2,46.0,29.95,SE,136,1.0,6.0,99,0.00,CLR,CLR,0.61,WeatherDisplay:10.37,2013-05-11 03:14:00,
2013-05-10 22:24:00,46.6,46.3,29.95,SSE,147,1.0,7.0,99,0.00,CLR,CLR,0.61,WeatherDisplay:10.37,2013-05-11 03:24:00,
2013-05-10 22:34:00,46.4,46.1,29.95,SSE,163,1.0,6.0,99,0.00,CLR,CLR,0.61,WeatherDisplay:10.37,2013-05-11 03:34:00,
2013-05-10 22:44:00,46.7,46.4,29.94,SE,142,5.0,9.0,99,0.00,CLR,CLR,0.61,WeatherDisplay:10.37,2013-05-11 03:44:00,
2013-05-10 22:54:00,46.8,46.5,29.94,SSE,162,3.0,9.0,99,0.00,CLR,CLR,0.61,WeatherDisplay:10.37,2013-05-11 03:54:00,
2013-05-10 23:04:00,46.9,46.7,29.94,South,173,3.0,9.0,99,0.00,CLR,CLR,0.61,WeatherDisplay:10.37,2013-05-11 04:04:00,
2013-05-10 23:14:00,46.8,46.5,29.94,South,170,2.0,7.0,99,0.00,CLR,CLR,0.61,WeatherDisplay:10.37,2013-05-11 04:14:00,
2013-05-10 23:24:00,46.8,46.5,29.93,SE,139,2.0,5.0,99,0.00,CLR,CLR,0.61,WeatherDisplay:10.37,2013-05-11 04:24:00,
2013-05-10 23:34:00,46.4,46.1,29.93,SSE,166,3.0,7.0,99,0.00,CLR,CLR,0.61,WeatherDisplay:10.37,2013-05-11 04:34:00,
2013-05-10 23:44:00,46.2,46.0,29.93,SSE,164,1.0,6.0,99,0.00,CLR,CLR,0.61,WeatherDisplay:10.37,2013-05-11 04:44:00,
2013-05-10 23:55:00,46.0,45.8,29.93,SSE,163,2.0,6.0,99,0.00,CLR,CLR,0.61,WeatherDisplay:10.37,2013-05-11 04:55:00,